Morristown, NJ

10:11 AM EDT on June 22, 2018 (GMT -0400)
Morristown Municipal

Weather History for KMMU - October, 2017

Change the Weather History Date:

Wednesday, October 18, 2017

  Actual Average Record
Temperature  
Mean Temperature 53 °F -  
Max Temperature 73 °F 64 °F 84 °F (2016)
Min Temperature 33 °F 38 °F 23 °F (1937)
Degree Days  
Heating Degree Days 12    
Growing Degree Days 3 (Base 50)    
Moisture  
Dew Point 40 °F    
Average Humidity 87    
Maximum Humidity 100    
Minimum Humidity 36    
Precipitation  
Precipitation 0.00 in - - ()
Sea Level Pressure  
Sea Level Pressure 30.29 in    
Wind  
Wind Speed 1 mph (WSW)    
Max Wind Speed 8 mph    
Max Gust Speed -    
Visibility 10 miles    
Events      
Averages and records for this station are not official NWS values.
T = Trace of Precipitation, MM = Missing Value Source: NWS Daily Summary

Daily Weather History Graph

Daily Weather History Graph

Search for Another Location

Airport or City:

Astronomy

Oct. 18, 2017 Rise Set
Actual Time 7:12 AM EDT 6:12 PM EDT
Civil Twilight 6:44 AM EDT 6:40 PM EDT
Nautical Twilight 6:12 AM EDT 7:11 PM EDT
Astronomical Twilight 5:41 AM EDT 7:43 PM EDT
Moon 5:47 AM EDT (10/18) 6:01 PM EDT (10/18)
Length of Visible Light 11h 55m
Length of Day
10h 59m
Waning Crescent, 1% of the Moon is Illuminated
Oct 18
Waning Crescent
Oct 19
New
Oct 27
First Quarter
Nov 4
Full
Nov 10
Last Quarter

Hourly Weather History & Observations

Time (EDT) Temp. Dew Point Humidity Pressure Visibility Wind Dir Wind Speed Gust Speed Precip Events Conditions
12:15 AM 35.6 °F 35.6 °F 100% 30.30 in 10.0 mi Calm Calm - N/A   Clear
12:30 AM 37.4 °F 35.6 °F 93% 30.30 in 10.0 mi Calm Calm - N/A   Clear
12:55 AM 35.6 °F 35.6 °F 100% 30.30 in 10.0 mi Calm Calm - N/A   Clear
1:15 AM 35.6 °F 35.6 °F 100% 30.29 in 10.0 mi Calm Calm - N/A   Clear
1:35 AM 35.6 °F 35.6 °F 100% 30.29 in 10.0 mi Calm Calm - N/A   Clear
1:55 AM 35.6 °F 35.6 °F 100% 30.30 in 10.0 mi Calm Calm - N/A   Clear
2:15 AM 35.6 °F 35.6 °F 100% 30.30 in 10.0 mi Calm Calm - N/A   Clear
2:35 AM 35.6 °F 35.6 °F 100% 30.29 in 10.0 mi Calm Calm - N/A   Clear
2:55 AM 35.6 °F 35.6 °F 100% 30.29 in 10.0 mi Calm Calm - N/A   Clear
3:15 AM 35.6 °F 35.6 °F 100% 30.28 in 10.0 mi Calm Calm - N/A   Clear
3:35 AM 35.6 °F 35.6 °F 100% 30.28 in 10.0 mi Calm Calm - N/A   Clear
3:55 AM 35.6 °F 35.6 °F 100% 30.28 in 10.0 mi Calm Calm - N/A   Clear
4:15 AM 35.6 °F 35.6 °F 100% 30.27 in 10.0 mi Calm Calm - N/A   Clear
4:35 AM 35.6 °F 35.6 °F 100% 30.28 in 10.0 mi Calm Calm - N/A   Clear
4:55 AM 33.8 °F 33.8 °F 100% 30.28 in 7.0 mi Calm Calm - N/A   Clear
5:15 AM 33.8 °F 33.8 °F 100% 30.29 in 7.0 mi Calm Calm - N/A   Clear
5:35 AM 35.6 °F 35.6 °F 100% 30.29 in 10.0 mi Calm Calm - N/A   Clear
5:55 AM 33.8 °F 33.8 °F 100% 30.30 in 10.0 mi Calm Calm - N/A   Clear
6:15 AM 33.8 °F 33.8 °F 100% 30.30 in 10.0 mi Calm Calm - N/A   Clear
6:35 AM 33.8 °F 33.8 °F 100% 30.31 in 10.0 mi Calm Calm - N/A   Clear
6:45 AM 35.6 °F 35.6 °F 100% 30.31 in 10.0 mi Calm Calm - N/A   Clear
7:45 AM 37.4 °F 37.4 °F 100% 30.32 in 10.0 mi Calm Calm - N/A   Clear
8:45 AM 44.6 °F 42.8 °F 93% 30.33 in 10.0 mi Calm Calm - N/A   Clear
10:45 AM 60.8 °F 44.6 °F 55% 30.33 in 10.0 mi South 3.5 mph - N/A   Clear
11:45 AM 66.2 °F 44.6 °F 46% 30.32 in 10.0 mi WNW 5.8 mph - N/A   Clear
12:45 PM 69.8 °F 46.4 °F 43% 30.31 in 10.0 mi West 4.6 mph - N/A   Clear
2:00 PM 73.4 °F 46.4 °F 38% 30.27 in 10.0 mi North - - N/A   Clear
2:45 PM 71.6 °F 46.4 °F 41% 30.27 in 10.0 mi West 8.1 mph - N/A   Clear
3:45 PM 73.4 °F 44.6 °F 36% 30.25 in 10.0 mi West 6.9 mph - N/A   Clear
4:50 PM 71.6 °F 46.4 °F 41% 30.25 in 10.0 mi WSW 6.9 mph - N/A   Clear
5:45 PM 69.8 °F 46.4 °F 43% 30.25 in 10.0 mi WSW 5.8 mph - N/A   Clear
6:45 PM 57.2 °F 48.2 °F 72% 30.26 in 10.0 mi Calm Calm - N/A   Clear
7:45 PM 53.6 °F 50.0 °F 88% 30.28 in 10.0 mi Calm Calm - N/A   Clear
9:15 PM 50.0 °F 46.4 °F 87% 30.30 in 10.0 mi Calm Calm - N/A   Clear
9:50 PM 48.2 °F 46.4 °F 93% 30.30 in 10.0 mi Calm Calm - N/A   Clear
10:35 PM 44.6 °F 44.6 °F 100% 30.29 in 10.0 mi Calm Calm - N/A   Clear
10:55 PM 44.6 °F 44.6 °F 100% 30.29 in 10.0 mi Calm Calm - N/A   Clear
11:15 PM 44.6 °F 42.8 °F 93% 30.29 in 10.0 mi Calm Calm - N/A   Clear
11:35 PM 42.8 °F 42.8 °F 100% 30.29 in 1.8 mi Calm Calm - N/A   Mist
11:55 PM 42.8 °F 42.8 °F 100% 30.28 in 10.0 mi Calm Calm - N/A   Clear